This is the latest recevied weather packets stored in our database for station/object KD7AWQ. If no packets are shown the sender has not sent any weather packets the latest 10 day(s).
| Time | Temp. | Humidity | Pressure | Rain* | Wind** | Luminosity | Snow |
|---|---|---|---|---|---|---|---|
| 1788044736 | 35° C | 21% | 1184.8 hPa | 0 mm | - | 71 W/m² | - |
| 1788044428 | 35° C | 20% | 1184.6 hPa | 0 mm | - | 76 W/m² | - |
| 1788044128 | 35° C | 21% | 1184.6 hPa | 0 mm | - | 100 W/m² | - |
| 1788043824 | 35.56° C | 20% | 1184.7 hPa | 0 mm | - | 228 W/m² | - |
| 1788043519 | 35.56° C | 21% | 1184.7 hPa | 0 mm | - | 744 W/m² | - |
| 1788043218 | 35.56° C | 21% | 1184.7 hPa | 0 mm | - | 745 W/m² | - |
| 1788042913 | 35.56° C | 21% | 1184.9 hPa | 0 mm | - | 242 W/m² | - |
| 1788042609 | 36.67° C | 21% | 1185 hPa | 0 mm | - | 331 W/m² | - |
| 1788042302 | 36.67° C | 20% | 1185.2 hPa | 0 mm | - | 874 W/m² | - |
| 1788041998 | 35.56° C | 20% | 1185 hPa | 0 mm | - | 897 W/m² | - |
| 1788041694 | 35° C | 21% | 1185.2 hPa | 0 mm | - | 925 W/m² | - |
| 1788041388 | 35° C | 21% | 1185.5 hPa | 0 mm | - | 264 W/m² | - |
| 1788041087 | 35.56° C | 21% | 1185.6 hPa | 0 mm | - | 299 W/m² | - |
| 1788040786 | 36.11° C | 21% | 1185.7 hPa | 0 mm | - | 351 W/m² | - |
| 1788040481 | 35° C | 21% | 1186 hPa | 0 mm | - | 1001 W/m² | - |
| 1788040177 | 35° C | 22% | 1185.8 hPa | 0 mm | - | 273 W/m² | - |
| 1788039876 | 35° C | 22% | 1185.5 hPa | 0 mm | - | 263 W/m² | - |
| 1788039571 | 35.56° C | 22% | 1185.6 hPa | 0 mm | - | 321 W/m² | - |
| 1788039266 | 35° C | 22% | 1186 hPa | 0 mm | - | 980 W/m² | - |
| 1788038961 | 35.56° C | 22% | 1185.8 hPa | 0 mm | - | 533 W/m² | - |
| 1788038657 | 35.56° C | 22% | 1186.2 hPa | 0 mm | - | 650 W/m² | - |
| 1788038356 | 35.56° C | 22% | 1186.2 hPa | 0 mm | - | 441 W/m² | - |
| 1788038052 | 35° C | 22% | 1186.4 hPa | 0 mm | - | 885 W/m² | - |
| 1788037751 | 35° C | 22% | 1186.4 hPa | 0 mm | - | 429 W/m² | - |
| 1788037446 | 35° C | 22% | 1186.4 hPa | 0 mm | - | 392 W/m² | - |
* Rain latest hour (hover to see other rain measurements)
** Current wind speed in m/s (hover to see current wind gust speed)